This demonstration page uses our WeatherBlox Daily Observations layout. Learn more.

Left ArrowRight Arrow

44.89941, -97.11507

Hourly Observations for April 6, 2021

Temp ( °F °C ) Dew Point ( °F °C ) Humidity (%) Winds ( mph kmh ) Pressure ( in mb ) Visibility ( mi km ) Precip ( " mm )
12:53 am 00:53 Clear 52 11.1 34 1.1 50 50 N 21 33 29.72 1007 10 16 0.00 0.00
1:53 am 01:53 Clear 49 9.4 30 -1.1 48 48 NNE 20 31 29.73 1007 10 16 0.00 0.00
2:53 am 02:53 Clear 45 7.2 29 -1.7 54 54 N 14 22 29.74 1007 10 16 0.00 0.00
3:53 am 03:53 Clear 45 7.2 25 -3.9 46 46 NNE 24 39 29.72 1007 10 16 0.00 0.00
4:53 am 04:53 Clear 45 7.2 24 -4.4 44 44 NNE 21 33 29.73 1007 10 16 0.00 0.00
5:53 am 05:53 Clear 44 6.7 28 -2.2 53 53 NNE 20 31 29.75 1008 10 16 0.00 0.00
6:53 am 06:53 Clear 42 5.6 29 -1.7 60 60 NNE 16 26 29.76 1008 10 16 0.00 0.00
7:53 am 07:53 Sunny 42 5.6 29 -1.7 60 60 N 21 33 29.81 1010 10 16 0.00 0.00
8:53 am 08:53 Sunny 43 6.1 30 -1.1 60 60 NE 13 20 29.83 1010 10 16 0.00 0.00
9:53 am 09:53 Sunny 43 6.1 30 -1.1 60 60 NE 17 28 29.82 1010 10 16 0.00 0.00
10:53 am 10:53 Partly Cloudy 45 7.2 30 -1.1 56 56 NNE 20 31 29.82 1010 10 16 0.00 0.00
11:53 am 11:53 Sunny 46 7.8 30 -1.1 54 54 NNE 18 30 29.79 1009 10 16 0.00 0.00
12:53 pm 12:53 Cloudy 46 7.8 31 -0.6 56 56 NNE 25 41 29.76 1008 10 16 0.00 0.00
1:53 pm 13:53 Mostly Cloudy 45 7.2 31 -0.6 58 58 NNE 20 31 29.76 1008 10 16 0.00 0.00
2:53 pm 14:53 Cloudy with Light Rain 43 6.1 36 2.2 76 76 NE 9 15 29.87 1011 9 14 0.02 0.51
3:53 pm 15:53 Cloudy with Rain 41 5 37 2.8 86 86 NNE 8 13 29.84 1011 4 6 0.14 3.56
4:19 pm 16:19 Cloudy with Rain 41 5 38 3.3 89 89 NE 13 20 29.82 1010 3 4 0.07 1.78
4:44 pm 16:44 Cloudy with Light Rain 42 5.6 38 3.3 85 85 NNE 17 28 29.80 1009 5 8 0.12 3.05
4:53 pm 16:53 Cloudy with Light Rain 41 5 38 3.3 89 89 NNE 18 30 29.78 1008 8 13 0.13 3.30
5:53 pm 17:53 Cloudy with Light Rain 43 6.1 37 2.8 80 80 NE 23 37 29.75 1007 10 16 0.00 0.00
6:13 pm 18:13 Cloudy with Nearby Thunderstorms 43 6.1 37 2.8 80 80 NE 23 37 29.77 1008 10 16 0.01 0.25
6:36 pm 18:36 Cloudy with Heavy Rain 42 5.6 37 2.8 82 82 NNE 21 33 29.79 1009 3 4 0.07 1.78
6:48 pm 18:48 Cloudy with Rain 43 6 37 3 81 81 NNE 23 37 29.79 1009 3 5 0.12 3.05
6:53 pm 18:53 Cloudy with Rain 42 5.6 37 2.8 82 82 NNE 23 37 29.77 1008 4 6 0.12 3.05
7:32 pm 19:32 Cloudy with Heavy Rain 41 5 38 3.3 89 89 NNE 23 37 29.79 1009 3 4 0.15 3.81
7:40 pm 19:40 Cloudy with Light Rain 41 5 38 3.3 89 89 NNE 21 33 29.79 1009 7 11 0.15 3.81
7:53 pm 19:53 Cloudy with Light Rain 42 5.6 38 3.3 85 85 N 16 26 29.80 1009 10 16 0.15 3.81
8:53 pm 20:53 Cloudy 41 5 38 3.3 89 89 N 17 28 29.83 1010 10 16 0.01 0.25
9:53 pm 21:53 Cloudy 41 5 38 3.3 89 89 N 20 31 29.83 1010 10 16 0.00 0.00
10:33 pm 22:33 Cloudy 41 5 38 3.3 89 89 NNE 25 41 29.82 1010 10 16 0.00 0.00
10:53 pm 22:53 Cloudy 41 5 38 3.3 89 89 NNE 23 37 29.81 1009 10 16 0.00 0.00
11:23 pm 23:23 Cloudy 41 5 38 3.3 89 89 NNE 22 35 29.81 1010 10 16 0.00 0.00
11:53 pm 23:53 Cloudy 42 5.6 38 3.3 85 85 NNE 22 35 29.79 1009 10 16 0.00 0.00

Powered by AerisWeather